Terminal Aerodrome Forecast
Issued by NWS

Home | Current Version | Previous Version | Text Only | Print | Product List | Glossary On
Versions: 1 2 3 4 5 6 7 8 9 10 11 12
000
FTUS42 KTBW 251700
TAFRSW
TAF
KRSW 251726Z 2518/2618 01008KT P6SM SKC
     FM260200 02003KT P6SM SKC
     FM261500 05007KT P6SM SKC=

USA.gov is the U.S. government's official web portal to all federal, state and local government web resources and services.